This is the latest recevied weather packets stored in our database for station/object KSRC. If no packets are shown the sender has not sent any weather packets the latest 1 day(s).
| Time | Temp. | Humidity | Pressure | Rain* | Wind** | Luminosity | Snow |
|---|---|---|---|---|---|---|---|
| 1836274587 | 20.56° C | 94% | 1016.9 hPa | - | 0 m/s | - | - |
| 1836274439 | 20.56° C | 94% | 1016.9 hPa | - | 0 m/s | - | - |
| 1836273987 | 20.56° C | 94% | 1016.9 hPa | - | 0 m/s | - | - |
| 1778057024 | 10.56° C | 87% | 1010.5 hPa | - | 7.6 m/s, 20° | - | - |
| 1778056419 | 10.56° C | 87% | 1011.9 hPa | - | 5.36 m/s, 30° | - | - |
| 1778055818 | 10.56° C | 87% | 1011.9 hPa | - | 5.36 m/s, 30° | - | - |
| 1778055217 | 10.56° C | 87% | 1010.8 hPa | - | 5.81 m/s, 30° | - | - |
| 1778054618 | 10.56° C | 87% | 1010.5 hPa | - | 4.47 m/s, 10° | - | - |
| 1778054016 | 10.56° C | 93% | 1010.2 hPa | - | 5.36 m/s, 10° | - | - |
| 1778053420 | 10.56° C | 93% | 1010.2 hPa | - | 5.36 m/s, 10° | - | - |
| 1778052818 | 10.56° C | 93% | 1010.2 hPa | - | 5.36 m/s, 10° | - | - |
| 1778052219 | 10.56° C | 93% | 1010.2 hPa | - | 5.36 m/s, 10° | - | - |
| 1778051620 | 10.56° C | 93% | 1010.2 hPa | - | 5.36 m/s, 10° | - | - |
| 1778051020 | 10.56° C | 93% | 1010.2 hPa | - | 5.36 m/s, 10° | - | - |
| 1778050415 | 11.67° C | 93% | 1009.1 hPa | - | 8.05 m/s, 10° | - | - |
| 1778049817 | 11.67° C | 93% | 1009.1 hPa | - | 8.05 m/s, 10° | - | - |
| 1778049224 | 11.67° C | 93% | 1009.1 hPa | - | 8.05 m/s, 10° | - | - |
| 1778048618 | 11.67° C | 93% | 1009.1 hPa | - | 8.05 m/s, 10° | - | - |
| 1778048017 | 11.67° C | 93% | 1009.1 hPa | - | 8.05 m/s, 10° | - | - |
| 1778047422 | 11.67° C | 93% | 1009.1 hPa | - | 8.05 m/s, 10° | - | - |
| 1778046819 | 12.78° C | 100% | 1012.9 hPa | - | 6.71 m/s, 10° | - | - |
| 1778046223 | 12.78° C | 100% | 1012.9 hPa | - | 6.71 m/s, 10° | - | - |
| 1778045616 | - | - | 1012.9 hPa | - | 6.71 m/s, 10° | - | - |
| 1778045018 | - | - | 1012.9 hPa | - | 6.71 m/s, 10° | - | - |
| 1778044418 | 13.89° C | 93% | 1009.1 hPa | - | 3.58 m/s, 360° | - | - |
* Rain since midnight (hover to see other rain measurements)
** Current wind speed in m/s (hover to see current wind gust speed)